TimeCDT,TemperatureF,Dew PointF,Humidity,Sea Level PressureIn,VisibilityMPH,Wind Direction,Wind SpeedMPH,Gust SpeedMPH,PrecipitationIn,Events,Conditions,WindDirDegrees,DateUTC
12:56 AM,59.0,55.9,90,30.09,10.0,Calm,Calm,-,N/A,,Clear,0,2013-05-09 05:56:00
1:56 AM,57.0,55.0,93,30.09,9.0,Calm,Calm,-,N/A,,Clear,0,2013-05-09 06:56:00
2:56 AM,55.0,53.1,93,30.09,9.0,SSE,3.5,-,N/A,,Clear,160,2013-05-09 07:56:00
3:56 AM,55.9,53.1,90,30.09,10.0,Calm,Calm,-,N/A,,Clear,0,2013-05-09 08:56:00
4:56 AM,55.9,53.1,90,30.09,10.0,Calm,Calm,-,N/A,,Clear,0,2013-05-09 09:56:00
5:56 AM,57.0,53.1,87,30.11,10.0,Calm,Calm,-,0.01,,Clear,0,2013-05-09 10:56:00
6:56 AM,59.0,55.0,87,30.13,10.0,Calm,Calm,-,N/A,,Scattered Clouds,0,2013-05-09 11:56:00
7:56 AM,64.9,59.0,81,30.15,10.0,West,3.5,-,N/A,,Clear,270,2013-05-09 12:56:00
8:56 AM,70.0,61.0,73,30.16,10.0,West,6.9,-,N/A,,Scattered Clouds,260,2013-05-09 13:56:00
9:56 AM,73.9,62.1,66,30.15,10.0,Variable,3.5,-,N/A,,Clear,0,2013-05-09 14:56:00
10:56 AM,77.0,60.1,56,30.16,10.0,SSW,8.1,-,N/A,,Scattered Clouds,210,2013-05-09 15:56:00
11:56 AM,81.0,59.0,47,30.16,10.0,WSW,5.8,-,N/A,,Scattered Clouds,240,2013-05-09 16:56:00
12:56 PM,81.0,59.0,47,30.15,10.0,South,4.6,-,N/A,,Mostly Cloudy,180,2013-05-09 17:56:00
1:56 PM,82.0,59.0,45,30.14,10.0,Variable,6.9,-,N/A,,Scattered Clouds,0,2013-05-09 18:56:00
2:56 PM,80.1,59.0,48,30.11,10.0,SW,3.5,-,N/A,,Scattered Clouds,230,2013-05-09 19:56:00
3:56 PM,81.0,59.0,47,30.08,10.0,SSW,6.9,-,N/A,,Scattered Clouds,200,2013-05-09 20:56:00
4:56 PM,81.0,59.0,47,30.07,10.0,South,9.2,-,N/A,,Mostly Cloudy,180,2013-05-09 21:56:00
5:56 PM,79.0,60.1,52,30.06,10.0,South,3.5,-,N/A,,Mostly Cloudy,190,2013-05-09 22:56:00
6:56 PM,77.0,62.1,60,30.06,10.0,Calm,Calm,-,N/A,,Mostly Cloudy,0,2013-05-09 23:56:00
7:56 PM,72.0,63.0,73,30.07,10.0,Calm,Calm,-,N/A,,Mostly Cloudy,0,2013-05-10 00:56:00
8:56 PM,70.0,62.1,76,30.07,10.0,SSE,4.6,-,N/A,,Mostly Cloudy,160,2013-05-10 01:56:00
9:56 PM,71.1,61.0,70,30.09,10.0,SSW,4.6,-,N/A,,Mostly Cloudy,210,2013-05-10 02:56:00
10:56 PM,70.0,60.1,71,30.08,10.0,South,5.8,-,N/A,,Overcast,180,2013-05-10 03:56:00
11:56 PM,69.1,59.0,70,30.08,10.0,South,4.6,-,N/A,,Overcast,170,2013-05-10 04:56:00